St-Mathias Seaplane Base

CSV9 · Quebec, 加拿大

METAR的历史 CSV9 · St-Mathias Seaplane Base

下面你可以看到过去几天的METARs。 选择年份以浏览从2007年开始的旧METAR。

2024年4月14日

时间 代码 天气 温度 能见度 天花板 METAR/SPECI
13:00
V
11 °C 9 mi 14.000 ft 260° 260° 7 kt METAR CYHU 141700Z AUTO 26007KT 220V280 9SM SCT110 BKN140 11/03 A2968 RMK SLP053
12:00
V
11 °C 9 mi 14.000 ft 230° 230° 12 kt METAR CYHU 141600Z AUTO 23012KT 9SM FEW066 BKN140 11/04 A2969 RMK SLP058
11:00
V
10 °C 9 mi - 250° 250° 10 - 17 kt METAR CYHU 141500Z AUTO 25010G17KT 9SM CLR 10/03 A2971 RMK SLP064
10:00
V
9 °C 9 mi - 220° 220° 12 - 17 kt METAR CYHU 141400Z AUTO 22012G17KT 9SM CLR 09/04 A2974 RMK SLP073
09:00
V
7 °C 9 mi - 240° 240° 9 - 15 kt METAR CYHU 141300Z AUTO 24009G15KT 9SM FEW130 SCT160 07/03 A2976 RMK SLP079
08:00
V
6 °C 9 mi - 240° 240° 8 kt METAR CYHU 141200Z AUTO 24008KT 9SM CLR 06/01 A2977 RMK SLP083
07:00
V
3 °C 9 mi - 240° 240° 7 kt METAR CYHU 141100Z AUTO 24007KT 9SM CLR 03/01 A2976 RMK SLP080
06:00
V
3 °C 9 mi - 250° 250° 8 kt METAR CYHU 141000Z AUTO 25008KT 9SM CLR 03/M00 A2975 RMK SLP077
05:00
V
4 °C 9 mi - 260° 260° 11 - 19 kt METAR CYHU 140900Z AUTO 26011G19KT 9SM CLR 04/00 A2974 RMK SLP074
04:00
V
4 °C 9 mi - 260° 260° 10 - 19 kt METAR CYHU 140800Z AUTO 26010G19KT 9SM FEW030 04/00 A2973 RMK SLP072
03:00
M
4 °C 9 mi 3.000 ft 260° 260° 12 - 18 kt METAR CYHU 140700Z AUTO 26012G18KT 9SM OVC030 04/00 A2971 RMK SLP063
02:00
M
4 °C 9 mi 3.000 ft 270° 270° 13 - 20 kt METAR CYHU 140600Z AUTO 27013G20KT 9SM OVC030 04/01 A2970 RMK SLP062
01:00
V
4 °C 9 mi 3.200 ft 260° 260° 10 - 18 kt METAR CYHU 140500Z AUTO 26010G18KT 9SM OVC032 04/01 A2968 RMK SLP055
00:00
V
4 °C 9 mi 7.200 ft 260° 260° 9 - 15 kt METAR CYHU 140400Z AUTO 26009G15KT 9SM FEW029 SCT055 BKN072 OVC093 04/01 A2967 RMK SLP050

2024年4月13日

时间 代码 天气 温度 能见度 天花板 METAR/SPECI
23:50
V
4 °C 9 mi 5.500 ft 270° 270° 12 - 18 kt METAR CYHU 140350Z AUTO 27012G18KT 9SM FEW022 BKN055 OVC070 04/01 A2967 RMK SLP050
23:24
V
4 °C 9 mi 5.500 ft 270° 270° 13 - 19 kt METAR CYHU 140324Z AUTO 27013G19KT 9SM -RA OVC055 04/01 A2967 RMK SLP049
23:00
V
4 °C 9 mi 5.500 ft 270° 270° 10 - 16 kt METAR CYHU 140300Z AUTO 27010G16KT 9SM OVC055 04/01 A2966 RMK SLP047
22:40
V
4 °C 9 mi 5.500 ft 270° 270° 13 - 19 kt METAR CYHU 140240Z AUTO 27013G19KT 9SM OVC055 04/01 A2965 RMK SLP043
22:00
V
4 °C 9 mi 3.100 ft 280° 280° 12 - 22 kt METAR CYHU 140200Z AUTO 28012G22KT 9SM -RA OVC031 04/01 A2964 RMK SLP041
21:00
V
3 °C 9 mi 3.300 ft 270° 270° 16 - 29 kt METAR CYHU 140100Z AUTO 27016G29KT 9SM -RA FEW018 OVC033 03/01 A2962 RMK SLP034
20:45
V
4 °C 9 mi 3.300 ft 280° 280° 18 - 26 kt METAR CYHU 140045Z AUTO 28018G26KT 9SM -RA SCT018 OVC033 04/01 A2961 RMK SLP030
20:12
M
4 °C 9 mi 2.000 ft 280° 280° 14 - 22 kt METAR CYHU 140012Z AUTO 28014G22KT 9SM -RA BKN020 BKN030 OVC035 04/01 A2959 RMK PRESRR SLP023
20:00
V
4 °C 9 mi 3.100 ft 290° 290° 17 - 26 kt METAR CYHU 140000Z AUTO 29017G26KT 9SM -RA SCT019 SCT024 BKN031 OVC037 04/01 A2957 RMK SLP018
19:49
V
4 °C 9 mi 3.700 ft 270° 270° 14 - 23 kt METAR CYHU 132349Z AUTO 27014G23KT 9SM -RA SCT021 SCT027 OVC037 04/01 A2957 RMK SLP016
19:19
M
4 °C 9 mi 2.400 ft 270° 270° 13 - 22 kt METAR CYHU 132319Z AUTO 27013G22KT 9SM -RA FEW017 BKN024 BKN037 OVC049 04/02 A2955 RMK SLP009
19:07
M
4 °C 9 mi 2.800 ft 280° 280° 16 - 25 kt METAR CYHU 132307Z AUTO 28016G25KT 9SM -RA SCT020 BKN028 OVC049 04/02 A2954 RMK SLP005
18:58
M
5 °C 9 mi 2.400 ft 270° 270° 13 - 22 kt METAR CYHU 132258Z AUTO 27013G22KT 9SM -RA SCT018 BKN024 BKN029 OVC046 05/02 A2953 RMK SLP004
18:32
M
5 °C 9 mi 2.200 ft 270° 270° 19 - 26 kt METAR CYHU 132232Z AUTO 27019G26KT 9SM -RA BKN022 OVC048 05/02 A2952 RMK SLP998
18:31
M
5 °C 9 mi 2.600 ft 260° 260° 18 - 24 kt METAR CYHU 132231Z AUTO 26018G24KT 9SM -RA SCT019 BKN026 BKN045 OVC055 05/02 A2952 RMK SLP998
18:21
M
5 °C 9 mi 2.400 ft 270° 270° 17 - 26 kt METAR CYHU 132221Z AUTO 27017G26KT 9SM -RA SCT019 BKN024 BKN035 OVC050 05/02 A2951 RMK SLP995
18:00
V
5 °C 9 mi 4.500 ft 280° 280° 16 - 27 kt METAR CYHU 132200Z AUTO 28016G27KT 9SM -RA SCT017 OVC045 05/02 A2949 RMK SLP990
17:55
V
5 °C 9 mi 4.700 ft 270° 270° 17 - 27 kt METAR CYHU 132155Z AUTO 27017G27KT 9SM -RA SCT017 BKN047 OVC055 05/02 A2949 RMK SLP990
17:27
V
5 °C 9 mi 4.900 ft 270° 270° 20 - 29 kt METAR CYHU 132127Z AUTO 27020G29KT 9SM -RA SCT019 SCT023 OVC049 05/02 A2947 RMK SLP984
17:20
M
5 °C 9 mi 1.900 ft 280° 280° 18 - 27 kt METAR CYHU 132120Z AUTO 28018G27KT 9SM -RA BKN019 BKN047 OVC055 05/02 A2947 RMK SLP981
17:00
V
5 °C 9 mi 3.300 ft 280° 280° 15 - 27 kt METAR CYHU 132100Z AUTO 28015G27KT 9SM -RA SCT019 SCT025 BKN033 OVC055 05/03 A2946 RMK PCPN 0.5MM PAST HR SLP978
16:46
M
5 °C 8 mi 1.900 ft 270° 270° 18 - 28 kt METAR CYHU 132046Z AUTO 27018G28KT 8SM -RA BKN019 BKN027 OVC033 05/03 A2945 RMK PCPN 0.5MM PAST HR SLP974
16:43
M
5 °C 8 mi 2.500 ft 270° 270° 22 - 28 kt METAR CYHU 132043Z AUTO 27022G28KT 8SM -RA SCT019 BKN025 OVC033 05/03 A2944 RMK SLP972
16:00
M
6 °C 9 mi 1.900 ft 270° 270° 15 - 22 kt METAR CYHU 132000Z AUTO 27015G22KT 9SM -RA BKN019 OVC028 06/04 A2943 RMK PCPN 0.5MM PAST HR SLP967
15:00
M
7 °C 9 mi 1.700 ft 240° 240° 15 - 24 kt METAR CYHU 131900Z AUTO 24015G24KT 9SM -RA BKN017 OVC031 07/04 A2941 RMK SLP961
14:16
M
7 °C 9 mi 2.100 ft 240° 240° 17 - 24 kt METAR CYHU 131816Z AUTO 24017G24KT 9SM -RA BKN021 BKN034 BKN040 OVC049 07/04 A2940 RMK SLP958
14:00
V
7 °C 9 mi 4.000 ft 230° 230° 14 - 24 kt METAR CYHU 131800Z AUTO 23014G24KT 9SM -RA SCT021 SCT029 BKN040 OVC060 07/04 A2940 RMK SLP957
13:40
V
7 °C 9 mi 5.500 ft 230° 230° 16 - 23 kt METAR CYHU 131740Z AUTO 23016G23KT 9SM -RA FEW024 SCT036 SCT044 OVC055 07/04 A2939 RMK SLP955
13:21
V
7 °C 9 mi 4.900 ft 230° 230° 16 kt METAR CYHU 131721Z AUTO 23016KT 9SM FEW023 SCT038 OVC049 07/04 A2939 RMK SLP954
13:14
V
7 °C 9 mi 3.400 ft 230° 230° 12 - 20 kt METAR CYHU 131714Z AUTO 23012G20KT 9SM -RA FEW019 SCT025 BKN034 OVC050 07/04 A2939 RMK SLP955
13:05
M
7 °C 9 mi 2.200 ft 220° 220° 14 - 21 kt METAR CYHU 131705Z AUTO 22014G21KT 9SM -RA SCT017 BKN022 BKN036 OVC050 07/04 A2939 RMK SLP955
12:56
M
7 °C 6 mi 1.700 ft 230° 230° 12 - 20 kt METAR CYHU 131656Z AUTO 23012G20KT 6SM -RA BR BKN017 BKN027 BKN038 OVC050 07/05 A2939 RMK SLP955
12:42
M
7 °C 9 mi 2.200 ft 230° 230° 13 - 21 kt METAR CYHU 131642Z AUTO 23013G21KT 9SM -RA SCT017 BKN022 BKN031 OVC042 07/04 A2939 RMK SLP954
12:19
V
7 °C 9 mi 4.100 ft 230° 230° 14 - 22 kt METAR CYHU 131619Z AUTO 23014G22KT 9SM -RA FEW024 SCT033 BKN041 OVC049 07/04 A2938 RMK SLP951
12:00
V
7 °C 9 mi 3.400 ft 230° 230° 17 - 22 kt METAR CYHU 131600Z AUTO 23017G22KT 9SM -RA FEW018 SCT025 BKN034 OVC046 07/04 A2938 RMK SLP950
12:03
V
7 °C 9 mi 3.500 ft 230° 230° 14 - 21 kt METAR CYHU 131603Z AUTO 23014G21KT 9SM FEW018 SCT023 BKN035 OVC043 07/04 A2938 RMK SLP950
11:24
M
8 °C 9 mi 2.500 ft 230° 230° 16 - 24 kt METAR CYHU 131524Z AUTO 23016G24KT 9SM -RA SCT020 BKN025 BKN029 OVC034 08/05 A2937 RMK SLP947
11:00
V
8 °C 9 mi 3.600 ft 220° 220° 17 - 24 kt METAR CYHU 131500Z AUTO 22017G24KT 9SM FEW020 BKN036 OVC130 08/04 A2936 RMK SLP946
10:00
V
9 °C 9 mi 13.000 ft 220° 220° 18 - 23 kt METAR CYHU 131400Z AUTO 22018G23KT 9SM BKN130 BKN150 BKN200 09/03 A2934 RMK SLP938
09:00
V
8 °C 9 mi 17.000 ft 230° 230° 18 - 24 kt METAR CYHU 131300Z AUTO 23018G24KT 9SM FEW086 BKN170 BKN200 08/02 A2932 RMK SLP932
08:00
V
8 °C 9 mi 6.000 ft 220° 220° 13 - 18 kt METAR CYHU 131200Z AUTO 22013G18KT 9SM BKN060 BKN075 OVC093 08/04 A2931 RMK SLP929
07:00
V
7 °C 9 mi 5.000 ft 230° 230° 7 kt METAR CYHU 131100Z AUTO 23007KT 9SM BKN050 OVC060 07/05 A2930 RMK SLP924
06:57
V
7 °C 9 mi 5.000 ft 230° 230° 8 kt METAR CYHU 131057Z AUTO 23008KT 9SM BKN050 OVC060 07/05 A2930 RMK SLP924
06:20
V
8 °C 6 mi 3.600 ft 240° 240° 9 kt METAR CYHU 131020Z AUTO 24009KT 6SM -RA BR OVC036 08/06 A2930 RMK SLP923
06:14
V
8 °C 5 mi 3.400 ft 230° 230° 9 kt METAR CYHU 131014Z AUTO 23009KT 5SM -RA BR OVC034 08/06 A2929 RMK SLP922
06:00
V
8 °C 6 mi 3.200 ft 230° 230° 8 kt METAR CYHU 131000Z AUTO 23008KT 6SM -RA BR OVC032 08/06 A2929 RMK PCPN 0.8MM PAST HR SLP921
05:57
M
8 °C 4 mi 2.600 ft 230° 230° 8 kt METAR CYHU 130957Z AUTO 23008KT 4SM -RA BR BKN026 OVC032 08/06 A2929 RMK PCPN 0.8MM PAST HR SLP920
05:42
M
8 °C 4 mi 2.400 ft 220° 220° 9 kt METAR CYHU 130942Z AUTO 22009KT 4SM -RA BR BKN024 OVC030 08/07 A2928 RMK PCPN 0.5MM PAST HR SLP919
05:39
M
8 °C 6 mi 2.800 ft 220° 220° 7 kt METAR CYHU 130939Z AUTO 22007KT 6SM -RA BR OVC028 08/07 A2928 RMK PCPN 0.5MM PAST HR SLP919
05:23
M
8 °C 6 mi 1.900 ft 230° 230° 8 kt METAR CYHU 130923Z AUTO 23008KT 6SM -RA BR FEW015 BKN019 OVC028 08/07 A2928 RMK PCPN 0.5MM PAST HR SLP918
05:11
M
8 °C 5 mi 1.700 ft 240° 240° 9 kt METAR CYHU 130911Z AUTO 24009KT 5SM -RA BR FEW009 BKN017 OVC023 08/07 A2928 RMK SLP917
05:00
M
8 °C 9 mi 1.800 ft 240° 240° 9 kt METAR CYHU 130900Z AUTO 24009KT 9SM FEW009 SCT013 BKN018 OVC023 08/07 A2928 RMK SLP916
05:01
M
8 °C 9 mi 1.300 ft 240° 240° 10 kt METAR CYHU 130901Z AUTO 24010KT 9SM -RA FEW009 BKN013 OVC020 08/07 A2928 RMK SLP916
04:36
M
9 °C 7 mi 2.300 ft 240° 240° 9 - 15 kt METAR CYHU 130836Z AUTO 24009G15KT 7SM -RA SCT015 BKN023 BKN031 OVC047 09/07 A2927 RMK SLP915
04:24
V
10 °C 9 mi 4.500 ft 200° 200° 11 - 17 kt METAR CYHU 130824Z AUTO 20011G17KT 9SM -RA FEW019 SCT028 BKN045 OVC055 10/08 A2927 RMK SLP913 DENSITY ALT 300FT
04:00
V
10 °C 9 mi 5.500 ft 200° 200° 9 - 16 kt METAR CYHU 130800Z AUTO 20009G16KT 9SM FEW026 OVC055 10/08 A2926 RMK SLP910 DENSITY ALT 300FT
03:00
V
10 °C 9 mi 6.600 ft 150° 150° 7 kt METAR CYHU 130700Z AUTO 15007KT 9SM BKN066 BKN076 OVC100 10/07 A2926 RMK SLP910 DENSITY ALT 400FT
02:00
V
11 °C 9 mi 6.000 ft 160° 160° 7 kt METAR CYHU 130600Z AUTO 16007KT 9SM FEW046 OVC060 11/09 A2926 RMK SLP912 DENSITY ALT 400FT
01:58
V
11 °C 9 mi 6.000 ft 160° 160° 6 kt METAR CYHU 130558Z AUTO 16006KT 9SM FEW046 OVC060 11/09 A2926 RMK SLP912 DENSITY ALT 400FT
01:13
V
10 °C 9 mi 5.500 ft 140° 140° 7 kt METAR CYHU 130513Z AUTO 14007KT 9SM -RA OVC055 10/09 A2927 RMK SLP914 DENSITY ALT 400FT
01:00
V
10 °C 9 mi 5.500 ft 150° 150° 6 kt METAR CYHU 130500Z AUTO 15006KT 9SM FEW043 OVC055 10/09 A2927 RMK SLP915 DENSITY ALT 300FT
00:00
V
11 °C 9 mi 4.800 ft 170° 170° 7 kt METAR CYHU 130400Z AUTO 17007KT 9SM BKN048 OVC060 11/08 A2927 RMK SLP913 DENSITY ALT 400FT

2024年4月12日

时间 代码 天气 温度 能见度 天花板 METAR/SPECI
23:00
V
10 °C 9 mi 5.500 ft 170° 170° 5 kt METAR CYHU 130300Z AUTO 17005KT 9SM OVC055 10/09 A2925 RMK SLP909 DENSITY ALT 300FT
22:00
V
10 °C 9 mi 9.100 ft 190° 190° 6 kt METAR CYHU 130200Z AUTO 19006KT 9SM OVC091 10/09 A2925 RMK SLP909 DENSITY ALT 300FT
21:47
V
10 °C 9 mi 9.100 ft 200° 200° 6 kt METAR CYHU 130147Z AUTO 20006KT 9SM OVC091 10/09 A2926 RMK SLP910 DENSITY ALT 300FT
21:00
V
10 °C 9 mi 7.100 ft 210° 210° 5 kt METAR CYHU 130100Z AUTO 21005KT 140V230 9SM -RA SCT014 BKN071 OVC093 10/09 A2924 RMK PCPN 0.8MM PAST HR SLP905 DENSITY ALT 400FT
20:40
V
10 °C 9 mi 7.100 ft 240° 240° 5 kt METAR CYHU 130040Z AUTO 24005KT 9SM -RA FEW024 SCT036 BKN071 OVC092 10/09 A2924 RMK PCPN 0.5MM PAST HR SLP903 DENSITY ALT 400FT
20:09
M
10 °C 6 mi 1.800 ft 230° 230° 8 kt METAR CYHU 130009Z AUTO 23008KT 6SM -RA BR SCT014 BKN018 BKN027 OVC037 10/09 A2923 RMK SLP900 DENSITY ALT 400FT
19:55
M
11 °C 5 mi 2.000 ft 180° 180° 7 - 18 kt METAR CYHU 122355Z AUTO 18007G18KT 160V230 5SM -RA BR FEW015 BKN020 BKN032 OVC055 11/09 A2923 RMK PRESRR PCPN 0.8MM PAST HR SLP900 DENSITY ALT 400FT
19:00
V
11 °C 9 mi 4.600 ft 250° 250° 10 - 16 kt METAR CYHU 122300Z AUTO 25010G16KT 9SM -RA FEW018 BKN046 OVC091 11/10 A2917 RMK PCPN 4.5MM PAST HR SLP880 DENSITY ALT 500FT
18:28
V
11 °C 6 mi 4.000 ft 230° 230° 7 kt METAR CYHU 122228Z AUTO 23007KT 6SM RA BR FEW017 BKN040 BKN055 OVC078 11/10 A2916 RMK PCPN 3.5MM PAST HR SLP878 DENSITY ALT 500FT
18:17
V
11 °C 5 mi 3.600 ft 250° 250° 8 - 15 kt METAR CYHU 122217Z AUTO 25008G15KT 5SM RA BR FEW015 BKN036 BKN048 OVC076 11/10 A2916 RMK PCPN 2.5MM PAST HR SLP876 DENSITY ALT 600FT
18:13
V
11 °C 5 mi 3.700 ft 250° 250° 11 - 17 kt METAR CYHU 122213Z AUTO 25011G17KT 5SM +RA BR FEW015 BKN037 OVC048 11/10 A2916 RMK PCPN 2.0MM PAST HR SLP876 DENSITY ALT 600FT
18:00
M
11 °C 4 mi 3.200 ft 260° 260° 12 - 19 kt METAR CYHU 122200Z AUTO 26012G19KT 4SM RA BR SCT017 BKN032 OVC039 11/10 A2915 RMK PCPN 4.0MM PAST HR SLP875 DENSITY ALT 600FT
17:51
M
11 °C 4 mi 3.100 ft 260° 260° 11 - 19 kt METAR CYHU 122151Z AUTO 26011G19KT 4SM RA BR FEW011 SCT015 BKN031 OVC039 11/10 A2915 RMK PCPN 2.8MM PAST HR SLP875 DENSITY ALT 600FT
17:39
M
11 °C 5 mi 1.500 ft 230° 230° 8 - 15 kt METAR CYHU 122139Z AUTO 23008G15KT 5SM -RA BR FEW009 BKN015 OVC031 11/10 A2915 RMK LTNG DIST SE PCPN 1.5MM PAST HR SLP874 DENSITY ALT 600FT
17:27
M
12 °C 9 mi 2.900 ft 250° 250° 10 - 16 kt METAR CYHU 122127Z AUTO 25010G16KT 9SM -RA SCT009 SCT015 OVC029 12/11 A2914 RMK LTNG DIST S PCPN 0.5MM PAST HR SLP870 DENSITY ALT 700FT
17:18
M
12 °C 9 mi 1.500 ft 240° 240° 9 kt METAR CYHU 122118Z AUTO 24009KT 9SM -RA SCT009 BKN015 OVC029 12/11 A2914 RMK PCPN 0.5MM PAST HR SLP872 DENSITY ALT 700FT
17:14
M
12 °C 9 mi 2.900 ft 230° 230° 10 kt METAR CYHU 122114Z AUTO 23010KT 9SM -RA FEW009 SCT013 OVC029 12/11 A2915 RMK PCPN 0.5MM PAST HR SLP875 DENSITY ALT 700FT
17:00
M
12 °C 4 mi 2.300 ft 240° 240° 10 - 18 kt METAR CYHU 122100Z AUTO 24010G18KT 4SM -RA BR FEW013 SCT018 BKN023 OVC029 12/11 A2914 RMK PCPN 2.5MM PAST HR SLP872 DENSITY ALT 700FT
16:50
M
12 °C 4 mi 2.300 ft 240° 240° 13 - 18 kt METAR CYHU 122050Z AUTO 24013G18KT 4SM RA BR SCT013 BKN023 BKN027 OVC043 12/11 A2915 RMK PRESRR PCPN 1.8MM PAST HR SLP873 DENSITY ALT 700FT
16:42
M
13 °C 9 mi 2.300 ft 240° 240° 12 - 18 kt METAR CYHU 122042Z AUTO 24012G18KT 9SM -RA FEW011 BKN023 BKN029 OVC041 13/11 A2913 RMK SLP867 DENSITY ALT 800FT
16:24
M
13 °C 9 mi 2.100 ft 240° 240° 16 kt METAR CYHU 122024Z AUTO 24016KT 9SM -RA BKN021 BKN030 OVC043 13/11 A2913 RMK SLP867 DENSITY ALT 800FT
16:00
M
14 °C 9 mi 2.100 ft 240° 240° 21 - 29 kt METAR CYHU 122000Z AUTO 24021G29KT 9SM BKN021 OVC050 14/12 A2912 RMK PCPN 0.8MM PAST HR ICE MISG SLP865 DENSITY ALT 900FT
15:53
M
15 °C 9 mi 2.100 ft 240° 240° 23 - 29 kt METAR CYHU 121953Z AUTO 24023G29KT 150V260 9SM BKN021 BKN050 BKN086 15/12 A2911 RMK PCPN 0.8MM PAST HR SLP859 DENSITY ALT 1000FT
15:24
V
19 °C 9 mi 7.800 ft 150° 150° 15 - 22 kt METAR CYHU 121924Z AUTO 15015G22KT 9SM FEW036 SCT055 BKN078 OVC095 19/16 A2911 RMK PCPN 0.8MM PAST HR SLP860 DENSITY ALT 1600FT
15:00
V
20 °C 9 mi 6.000 ft 170° 170° 18 - 32 kt METAR CYHU 121900Z AUTO 17018G32KT 9SM -RA FEW045 BKN060 BKN079 BKN100 20/15 A2912 RMK SLP863 DENSITY ALT 1700FT
14:59
V
20 °C 9 mi 6.800 ft 170° 170° 22 - 32 kt METAR CYHU 121859Z AUTO 17022G32KT 9SM -RA FEW043 SCT055 BKN068 BKN079 20/15 A2912 RMK SLP863 DENSITY ALT 1700FT
14:16
V
22 °C 9 mi 7.300 ft 150° 150° 19 - 29 kt METAR CYHU 121816Z AUTO 15019G29KT 9SM SCT055 BKN073 BKN097 BKN150 22/15 A2913 RMK SLP867 DENSITY ALT 1900FT
14:00
V
21 °C 9 mi 7.200 ft 140° 140° 18 - 29 kt METAR CYHU 121800Z AUTO 14018G29KT 9SM SCT055 BKN072 BKN095 OVC200 21/15 A2914 RMK SLP871 DENSITY ALT 1800FT
14:05
V
21 °C 9 mi 6.000 ft 150° 150° 14 - 26 kt METAR CYHU 121805Z AUTO 15014G26KT 9SM -RA FEW050 BKN060 BKN072 OVC095 21/15 A2914 RMK SLP871 DENSITY ALT 1800FT
13:54
V
21 °C 9 mi 9.600 ft 150° 150° 15 - 30 kt METAR CYHU 121754Z AUTO 15015G30KT 9SM SCT055 SCT071 BKN096 BKN200 21/15 A2914 RMK SLP871 DENSITY ALT 1800FT
13:41
V
21 °C 9 mi 9.900 ft 140° 140° 16 - 32 kt METAR CYHU 121741Z AUTO 14016G32KT 9SM -RA SCT045 SCT060 BKN099 BKN200 21/14 A2915 RMK SLP872 DENSITY ALT 1800FT
13:00
V
22 °C 9 mi - 150° 150° 24 - 34 kt METAR CYHU 121700Z AUTO 15024G34KT 9SM CLR 22/14 A2917 RMK SLP879 DENSITY ALT 1900FT
12:00
V
20 °C 9 mi 4.500 ft 140° 140° 21 - 29 kt METAR CYHU 121600Z AUTO 14021G29KT 9SM BKN045 BKN055 OVC075 20/14 A2922 RMK SLP896 DENSITY ALT 1600FT
11:00
V
20 °C 9 mi 6.000 ft 130° 130° 16 - 27 kt METAR CYHU 121500Z AUTO 13016G27KT 9SM FEW046 BKN060 BKN088 20/14 A2926 RMK SLP910 DENSITY ALT 1500FT
10:00
V
19 °C 9 mi 23.000 ft 130° 130° 24 - 33 kt METAR CYHU 121400Z AUTO 13024G33KT 9SM FEW050 SCT130 BKN230 19/14 A2927 RMK PRESFR SLP914 DENSITY ALT 1400FT
09:59
V
19 °C 9 mi 23.000 ft 130° 130° 26 - 33 kt METAR CYHU 121359Z AUTO 13026G33KT 9SM FEW050 SCT130 BKN230 19/14 A2927 RMK PRESFR SLP913 DENSITY ALT 1400FT
09:00
V
17 °C 9 mi 17.000 ft 120° 120° 16 - 31 kt METAR CYHU 121300Z AUTO 12016G31KT 9SM FEW055 SCT140 BKN170 OVC200 17/13 A2930 RMK SLP925 DENSITY ALT 1100FT
08:00
V
16 °C 9 mi 11.000 ft 130° 130° 16 - 25 kt METAR CYHU 121200Z AUTO 13016G25KT 9SM OVC110 16/13 A2935 RMK PRESFR SLP941 DENSITY ALT 1000FT
07:19
V
15 °C 9 mi 15.000 ft 130° 130° 12 - 17 kt METAR CYHU 121119Z AUTO 13012G17KT 9SM FEW130 BKN150 OVC210 15/12 A2939 RMK WSHFT AT 1106Z SLP955 DENSITY ALT 800FT
07:00
V
14 °C 9 mi 21.000 ft 080° 080° 8 kt METAR CYHU 121100Z AUTO 08008KT 9SM FEW044 SCT170 BKN210 14/11 A2940 RMK PRESFR SLP959 DENSITY ALT 600FT
06:00
V
14 °C 9 mi 5.000 ft 080° 080° 5 kt METAR CYHU 121000Z AUTO 08005KT 9SM -RA SCT040 BKN050 OVC150 14/11 A2945 RMK SLP974 DENSITY ALT 500FT
06:04
V
14 °C 9 mi 15.000 ft 080° 080° 5 kt METAR CYHU 121004Z AUTO 08005KT 9SM SCT039 SCT050 OVC150 14/11 A2944 RMK PRESFR SLP973 DENSITY ALT 500FT
05:42
V
14 °C 9 mi 15.000 ft 100° 100° 7 kt METAR CYHU 120942Z AUTO 10007KT 9SM -RA FEW055 OVC150 14/11 A2946 RMK SLP978 DENSITY ALT 600FT
05:00
V
15 °C 9 mi 3.800 ft 130° 130° 9 - 16 kt METAR CYHU 120900Z AUTO 13009G16KT 9SM BKN038 OVC055 15/11 A2949 RMK SLP987 DENSITY ALT 600FT
04:13
V
14 °C 9 mi 4.200 ft 140° 140° 6 kt METAR CYHU 120813Z AUTO 14006KT 9SM FEW028 BKN042 OVC120 14/11 A2951 RMK SLP995 DENSITY ALT 500FT
04:00
V
14 °C 9 mi 12.000 ft 130° 130° 10 - 24 kt METAR CYHU 120800Z AUTO 13010G24KT 9SM -RA SCT035 BKN120 OVC140 14/11 A2951 RMK SLP994 DENSITY ALT 500FT
03:52
V
14 °C 9 mi 3.800 ft 140° 140° 13 - 24 kt METAR CYHU 120752Z AUTO 14013G24KT 9SM -RA FEW029 BKN038 OVC120 14/11 A2951 RMK PRESFR SLP996 DENSITY ALT 500FT
03:19
V
13 °C 9 mi 3.800 ft Var Var 2 kt METAR CYHU 120719Z AUTO VRB02KT 9SM -RA OVC038 13/11 A2953 RMK SLP003 DENSITY ALT 300FT
03:00
V
13 °C 9 mi 3.800 ft Var Var 2 kt METAR CYHU 120700Z AUTO VRB02KT 9SM -RA OVC038 13/11 A2954 RMK PCPN 0.8MM PAST HR SLP006 DENSITY ALT 300FT
03:01
V
13 °C 9 mi 3.800 ft Var Var 2 kt METAR CYHU 120701Z AUTO VRB02KT 9SM OVC038 13/11 A2954 RMK SLP005 DENSITY ALT 300FT
02:00
V
13 °C 9 mi 10.000 ft 130° 130° 9 kt METAR CYHU 120600Z AUTO 13009KT 9SM -RA OVC100 13/11 A2959 RMK PCPN 2.0MM PAST HR SLP022 DENSITY ALT 300FT
报告变更